Satellite: NOAA-15
Catalog number: 25338
Epoch time:      06276.74798839
Element set:    0688
Inclination:      098.5234 deg
RA of node:       275.8307 deg
Eccentricity:    0.0011496
Arg of perigee:   059.5541 deg
Mean anomaly:     300.6767 deg
Mean motion:   14.24605508 rev/day
Decay rate:       1.51e-06 rev/day^2
Epoch rev:           43617
Checksum:              340

Satellite: RESURS
Catalog number: 25394
Epoch time:      06276.76483910
Element set:    0477
Inclination:      098.4814 deg
RA of node:       335.9283 deg
Eccentricity:    0.0000820
Arg of perigee:   189.6494 deg
Mean anomaly:     170.4669 deg
Mean motion:   14.24113213 rev/day
Decay rate:        3.0e-08 rev/day^2
Epoch rev:           42785
Checksum:              313

Satellite: FENGYUN1
Catalog number: 25730
Epoch time:      06278.60905191
Element set:     840
Inclination:      098.6358 deg
RA of node:       267.0272 deg
Eccentricity:    0.0014171
Arg of perigee:   182.9275 deg
Mean anomaly:     177.1807 deg
Mean motion:   14.11815500 rev/day
Decay rate:        3.0e-08 rev/day^2
Epoch rev:           38159
Checksum:              294

Satellite: OKEAN-0
Catalog number: 25860
Epoch time:      06277.61781499
Element set:    0870
Inclination:      097.7337 deg
RA of node:       286.8527 deg
Eccentricity:    0.0001778
Arg of perigee:   091.3164 deg
Mean anomaly:     268.8259 deg
Mean motion:   14.73392625 rev/day
Decay rate:        6.1e-07 rev/day^2
Epoch rev:           38786
Checksum:              356

Satellite: NOAA-16
Catalog number: 26536
Epoch time:      06276.74728107
Element set:    0072
Inclination:      099.0807 deg
RA of node:       244.7093 deg
Eccentricity:    0.0010460
Arg of perigee:   170.8835 deg
Mean anomaly:     189.2506 deg
Mean motion:   14.12374662 rev/day
Decay rate:       3.60e-06 rev/day^2
Epoch rev:           31090
Checksum:              299

Satellite: NOAA-17
Catalog number: 27453
Epoch time:      06276.88573821
Element set:    0092
Inclination:      098.6118 deg
RA of node:       346.9370 deg
Eccentricity:    0.0012657
Arg of perigee:   118.5198 deg
Mean anomaly:     241.7276 deg
Mean motion:   14.23814405 rev/day
Decay rate:       1.38e-06 rev/day^2
Epoch rev:           22224
Checksum:              317

Satellite: NOAA-18
Catalog number: 28654
Epoch time:      06276.84464296
Element set:    0661
Inclination:      098.7953 deg
RA of node:       217.8319 deg
Eccentricity:    0.0013637
Arg of perigee:   276.2213 deg
Mean anomaly:     083.7420 deg
Mean motion:   14.10994757 rev/day
Decay rate:       -3.7e-07 rev/day^2
Epoch rev:           07070
Checksum:              333

/EX
SB KEPS @ AMSAT  $ORB06278.M
Orbital Elements  06278.MISC

HR AMSAT ORBITAL ELEMENTS FOR MANNED AND MISCELLANEOUS SATELLITES
FROM WA5QGD FORT WORTH,TX October 5, 2006
Send SUBSCRIBE KEPS/UNSUBSCRIBE KEPS to majordomo@amsat.org only
BID: ORB06278.M
TO ALL RADIO AMATEURS BT

Satellite: HUBBLE
Catalog number: 20580
Epoch time:      06277.80786798
Element set:    0729
Inclination:      028.4673 deg
RA of node:       055.2622 deg
Eccentricity:    0.0003768
Arg of perigee:   262.2061 deg
Mean anomaly:     097.8100 deg
Mean motion:   15.00102802 rev/day
Decay rate:       4.26e-06 rev/day^2
Epoch rev:           70157
Checksum:              288

Satellite: UARS
Catalog number: 21701
Epoch time:      06278.68782333
Element set:     886
Inclination:      056.9770 deg
RA of node:       335.7851 deg
Eccentricity:    0.0106169
Arg of perigee:   063.4850 deg
Mean anomaly:     297.7045 deg
Mean motion:   15.44822233 rev/day
Decay rate:      5.328e-05 rev/day^2
Epoch rev:           82637
Checksum:              331

Satellite: PO-34
Catalog number: 25520
Epoch time:      06277.83690438
Element set:     577
Inclination:      028.4609 deg
RA of node:       017.5365 deg
Eccentricity:    0.0005136
Arg of perigee:   357.8239 deg
Mean anomaly:     002.2301 deg
Mean motion:   15.16802951 rev/day
Decay rate:       5.80e-06 rev/day^2
Epoch rev:           43871
Checksum:              303

Satellite: ISS
Catalog number: 25544
Epoch time:      06278.76793981
Element set:     805
Inclination:      051.6381 deg
RA of node:       337.7999 deg
Eccentricity:    0.0012821
Arg of perigee:   063.7377 deg
Mean anomaly:     069.8845 deg
Mean motion:   15.76584864 rev/day
Decay rate:     1.6812e-04 rev/day^2
Epoch rev:           45060
Checksum:              358

Satellite: OO-38
Catalog number: 26063
Epoch time:      06278.81650236
Element set:     733
Inclination:      100.1954 deg
RA of node:       229.8033 deg
Eccentricity:    0.0037036
Arg of perigee:   155.2587 deg
Mean anomaly:     205.0385 deg
Mean motion:   14.35779284 rev/day
Decay rate:        2.1e-07 rev/day^2
Epoch rev:           35054
Checksum:              298

Satellite: NO-45
Catalog number: 26932
Epoch time:      06276.94878179
Element set:    0427
Inclination:      067.0532 deg
RA of node:       087.2544 deg
Eccentricity:    0.0006202
Arg of perigee:   233.3929 deg
Mean anomaly:     126.6599 deg
Mean motion:   14.29536144 rev/day
Decay rate:       -4.4e-07 rev/day^2
Epoch rev:           26151
Checksum:              324

